Torna al catalogo

ECHO 1 DEB

METAL OBJ

AttivoLEO
NORAD 53·DEBRIS·🇺🇸 United States

Lanciato Aug 12, 1960 da Cape Canaveral Space Force Station

Loading…

Prossimi Passaggi (prossime 24 ore)

TLE

AggiornatoSource: Space-Track

Epoca: Sep 6, 2026, 23:48 UTC

1 00053U 60009E   26249.99201468 -.00000166  00000-0 -80543-3 0  9993
2 00053  47.2764  89.9828 0098381 318.3193  41.0130 12.17413383945393

Traccia ECHO 1 DEB in tempo reale con AllMySat

Download on the App Store